Location: Tierra del Sol
(32.6128°N, 116.3319°W)
Time: 08:59:46
(UTC-08:00)

Vanguard 3 - All Passes

Search period start: 16 December 2017 00:00
Search period end: 26 December 2017 00:00
Orbit: 509 x 3263 km, 33.3° (Epoch: 15 December)

Date Brightness Start Highest point End Pass type
(mag) Time Alt. Az. Time Alt. Az. Time Alt. Az.
16 Dec - 09:10:34 10° SW 09:17:42 29° SSE 09:22:21 10° E daylight
16 Dec - 11:23:53 10° WSW 11:29:37 73° SSE 11:33:32 10° E daylight
16 Dec - 13:37:03 10° W 13:41:02 82° N 13:44:46 10° E daylight
16 Dec - 15:48:45 10° W 15:52:16 38° SSW 15:56:48 10° SE daylight
16 Dec - 18:02:40 10° SW 18:04:10 11° SSW 18:05:49 10° S visible
17 Dec - 07:56:11 10° SSW 08:03:32 22° SSE 08:08:36 10° ESE daylight
17 Dec - 10:08:49 10° WSW 10:16:07 52° SSE 10:20:36 10° E daylight
17 Dec - 12:22:52 10° W 12:27:44 81° N 12:31:26 10° E daylight
17 Dec - 14:35:23 10° W 14:39:02 63° SSW 14:43:01 10° ESE daylight
17 Dec - 16:47:35 10° WSW 16:50:24 17° SSW 16:53:53 10° SSE daylight
18 Dec - 06:42:47 10° S 06:48:54 15° SSE 06:53:40 10° ESE daylight
18 Dec - 08:53:34 10° SW 09:02:17 38° SSE 09:07:33 10° E daylight
18 Dec - 11:07:55 10° WSW 11:14:20 83° SSE 11:18:27 10° E daylight
18 Dec - 13:21:37 10° W 13:25:50 89° N 13:29:30 10° E daylight
18 Dec - 15:33:45 10° W 15:36:58 28° SSW 15:40:48 10° SE daylight
19 Dec - 07:38:27 10° SSW 07:47:59 29° SSE 07:54:05 10° E daylight
19 Dec - 09:52:23 10° WSW 10:00:44 64° SSE 10:05:36 10° E daylight
19 Dec - 12:07:08 10° W 12:12:30 80° N 12:16:19 10° E daylight
19 Dec - 14:20:04 10° W 14:23:48 51° SSW 14:27:30 10° ESE daylight
19 Dec - 16:33:40 10° SW 16:35:02 11° SSW 16:36:33 10° S daylight
20 Dec - 06:24:01 10° SSW 06:33:14 21° SSE 06:39:45 10° ESE daylight
20 Dec - 08:36:35 10° SW 08:46:46 48° SSE 08:52:37 10° E daylight
20 Dec - 10:51:50 10° W 10:59:00 90° NNW 11:03:24 10° E daylight
20 Dec - 13:06:03 10° W 13:10:37 83° S 13:14:16 10° ESE daylight
20 Dec - 15:18:48 10° WSW 15:21:39 21° SSW 15:24:45 10° SSE daylight
21 Dec - 05:11:16 10° S 05:18:01 14° SSE 05:23:32 10° ESE visible
21 Dec - 07:20:53 10° SW 07:32:21 37° SSE 07:39:17 10° E daylight
21 Dec - 09:35:54 10° WSW 09:45:16 74° SSE 09:50:33 10° E daylight
21 Dec - 11:51:18 10° W 11:57:15 82° N 12:01:14 10° E daylight
21 Dec - 14:04:43 10° W 14:08:30 40° SSW 14:12:00 10° SE daylight
22 Dec - 06:05:45 10° SSW 06:17:26 27° SSE 06:25:16 10° E visible
22 Dec - 08:19:36 10° SW 08:31:11 58° SSE 08:37:36 10° E daylight
22 Dec - 10:35:40 10° W 10:43:39 86° N 10:48:20 10° E daylight
22 Dec - 12:50:22 10° W 12:55:21 73° SSW 12:59:04 10° ESE daylight
22 Dec - 15:04:00 10° WSW 15:06:16 15° SSW 15:08:33 10° S daylight
23 Dec - 04:51:50 10° S 05:02:05 19° SSE 05:09:54 10° ESE visible
23 Dec - 07:03:23 10° SW 07:16:36 45° SSE 07:24:20 10° E daylight
23 Dec - 09:19:20 10° WSW 09:29:46 82° SSE 09:35:29 10° E daylight
23 Dec - 11:35:20 10° W 11:41:57 86° N 11:46:09 10° E daylight
23 Dec - 13:49:18 10° W 13:53:11 32° SSW 13:56:30 10° SE daylight
24 Dec - 03:41:16 10° SSE 03:46:21 12° SE 03:50:59 10° SE visible
24 Dec - 05:47:43 10° SSW 06:01:31 34° SSE 06:10:27 10° E visible
24 Dec - 08:02:37 10° WSW 08:15:29 67° SSE 08:22:31 10° E daylight
24 Dec - 10:19:24 10° W 10:28:15 84° N 10:33:17 10° E daylight
24 Dec - 12:34:35 10° W 12:40:04 64° SSW 12:43:53 10° ESE daylight
24 Dec - 14:49:38 10° SW 14:50:48 11° SSW 14:51:57 10° SSW daylight
25 Dec - 04:33:07 10° SSW 04:46:01 25° SSE 04:55:29 10° E visible
25 Dec - 06:45:58 10° SW 07:00:43 53° SSE 07:09:14 10° E daylight
25 Dec - 09:02:43 10° WSW 09:14:12 87° SSE 09:20:24 10° E daylight
25 Dec - 11:19:14 10° W 11:26:38 89° S 11:31:05 10° E daylight
25 Dec - 13:33:50 10° W 13:37:47 27° SSW 13:40:59 10° SSE daylight
